Flag for U.S.A. Weather past 2 weeks in Lincoln, Nebraska, U.S.A.

Now
79 °F

Clear.


Feels Like: 82 °F
Forecast: 72 / 95 °F
Wind: 8 mph from Southeast

Location: Lincoln Municipal Airport

Current Time: Aug 20, 2014 at 2:22:51 AM

Latest Report: Aug 20, 2014 at 1:54 AM


Visibility: 10 mi

Pressure: 29.75 "Hg

Humidity: 77%

Dew point: 71 °F

Location of LincolnLocation

Historic Weather in Lincoln — Graph

°F

Lincoln temperature yesterday

Maximum temperature yesterday: 91 °F (at 2:54 PM)
Minimum temperature yesterday: 66 °F (at 6:54 AM)
Average temperature yesterday: 80 °F

Past Weeks' High & Low Weather Summary

 TemperatureHumidityPressure
High91 °F (Aug 5, 3:54 PM)96% (Aug 7, 4:54 AM)30.18 "Hg (Aug 7, 4:54 AM)
Low52 °F (Aug 12, 5:54 AM)35% (Aug 13, 2:54 PM)29.74 "Hg (Aug 19, 7:54 PM)
Average75 °F72%29.96 "Hg
* Reported Aug 5 12:54 AM — Aug 20 12:54 AM, Lincoln, Weather by CustomWeather, © 2014

Note: Actual official high and low records may vary slightly from our data, if they occured in-between our weather recording intervals... More about our weather records

Advertising

Lincoln weather history for previous 24 hours

 ConditionsComfort  
Time TempWeatherWind HumidityBarometerVisibility
12:54 AM
Aug 20
79 °FClear.6 mph77%29.75 "Hg10 mi
11:54 PM
Aug 19
79 °FClear.6 mph74%29.75 "Hg10 mi
10:54 PM79 °FClear.7 mph74%29.75 "Hg10 mi
9:54 PM82 °FClear.8 mph65%29.75 "Hg10 mi
8:54 PM81 °FSunny.9 mph65%29.74 "Hg10 mi
7:54 PM82 °FSunny.6 mph63%29.74 "Hg9 mi
6:54 PM88 °FSunny.8 mph48%29.75 "Hg9 mi
5:54 PM90 °FSunny.9 mph45%29.75 "Hg9 mi
4:54 PM91 °FSunny.9 mph42%29.75 "Hg9 mi
3:54 PM91 °FSunny.9 mph41%29.76 "Hg9 mi
2:54 PM91 °FSunny.8 mph38%29.77 "Hg9 mi
1:54 PM90 °FSunny.6 mph37%29.78 "Hg9 mi
12:54 PM88 °FSunny.3 mph40%29.80 "Hg9 mi
11:54 AM85 °FSunny.5 mph45%29.82 "Hg10 mi
10:54 AM83 °FSunny.No wind51%29.83 "Hg9 mi
9:54 AM80 °FSunny.No wind58%29.83 "Hg10 mi
8:54 AM75 °FSunny.No wind71%29.82 "Hg10 mi
7:54 AM70 °FSunny.No wind90%29.81 "Hg9 mi
6:54 AM66 °FClear.3 mph93%29.80 "Hg9 mi
5:54 AM69 °FClear.No wind93%29.78 "Hg9 mi
4:54 AM72 °FClear.3 mph87%29.75 "Hg10 mi
3:54 AM70 °FClear.3 mph93%29.75 "Hg10 mi
2:54 AM73 °FClear.8 mph88%29.75 "Hg10 mi
Weather by CustomWeather, © 2014

See weather overviewHow to use our weather pages